Powrót do katalogu

STARLINK-33813

AktywnyŁącznośćVLEO
NORAD 63585·PAYLOAD·🇺🇸 United States

Wystrzelony Apr 14, 2025 z Cape Canaveral Space Force Station

Loading…

Następne Przeloty (najbliższe 24 godziny)

TLE

ŚwieżeSource: CelesTrak SupGP

Epoka: Sep 14, 2026, 21:03 UTC

1 63585C 25076S   26257.87756944 -.00021202  00000+0 -76798-3 0  2574
2 63585  43.0021 332.8327 0001499 267.8721 291.3997 15.27586448    14

Śledź STARLINK-33813 w czasie rzeczywistym z AllMySat

Download on the App Store